TIANQI-6 (46810 NORAD) Tracking and Keplerian Element Data

This shows tracking and keplerian element data for the satellite.

Feedback or suggestion? Click here.




ElementValue
Catalog46810
NameTIANQI-6
Epoch Orbit407
Epoch Day327.99889157
Epoch Year2020
RAAN76.9814
Inclination35.0046
Eccentricity0.0013522
Argument of Perigee189.8341
Mean Anonmoly170.21
Mean Motion14.91379509
Decay Rate2.49E-06
L11 46810U 20076D 20327.99889157 .00000249 00000-0 27136-4 0 9992
L22 46810 35.0046 76.9814 0013522 189.8341 170.2100 14.91379509 4071

Live tracking and technical data element details for TIANQI-6 (NORAD 46810). TIANQI-6 can be tracked NOW for your location showing map with azimuth and elevation plus other details from your city location.

Track the satellite on the map from your city or location and see movement details for azimuth, elevation, latitude, longitude, range, height, and movement on the map or in text.







IsCatalogInMostPopularTable: catalog: 46810, numindb: 8
Update: records affected: 1



GetName: 46810 TIANQI-6

Hit Count: updated at: Tue, 24 Nov 2020 12:18:26 GMT